Vorticity
8 8 8 10 6 7 10 9 -20 8 14 0 12 -3 4 -10 -4 -3 13 9 -8 7 3 4 3 4 4 5 5 4 5 4 4 4 4 5 5 6 6 7 7 6 6 5 5 5 4 4 4
7 8 9 1 -1 10 4 9 11 25 8 18 -3 9 13 4 5 2 18 18 6 6 4 4 4 3 4 4 5 5 6 5 5 5 5 5 7 6 6 7 7 6 5 5 4 4 4 4 4
7 7 2 1 8 -1 7 16 21 2 12 3 2 15 -2 18 5 -1 14 5 5 3 6 4 4 4 4 4 5 5 5 5 5 5 5 7 8 7 6 7 6 6 6 5 5 4 4 4 4
10 13 2 7 -0 24 1 19 8 10 4 -4 11 18 10 11 7 4 13 6 8 4 6 4 4 4 3 4 5 5 5 5 6 5 6 6 6 7 6 7 7 6 5 5 5 5 4 4 4
10 5 0 3 5 -16 19 10 12 5 10 4 3 -3 11 1 7 7 9 6 6 6 5 5 4 3 4 4 5 5 5 5 5 5 6 6 6 6 6 6 6 6 6 6 5 5 5 5 5
-0 8 2 6 6 12 7 11 7 4 -3 10 -0 8 6 10 7 5 8 5 7 4 6 5 4 4 4 4 5 5 5 5 5 5 5 6 6 6 5 5 5 6 6 7 7 6 6 6 5
5 2 6 2 6 -2 6 5 6 3 12 8 8 0 11 9 13 6 6 5 4 6 8 6 5 4 4 3 4 5 4 4 5 5 5 4 5 5 5 5 5 5 5 5 5 5 5 5 5
5 4 5 8 6 2 7 7 13 7 10 21 2 7 3 -2 11 6 5 7 3 4 5 4 5 4 4 5 4 5 5 5 5 4 4 5 5 5 5 5 5 5 5 5 4 4 4 5 5
9 3 11 10 15 1 8 8 12 9 5 2 10 8 18 14 13 6 6 7 5 4 4 5 5 4 4 3 6 5 6 6 6 5 5 5 5 5 6 5 5 6 5 5 4 4 4 5 10
7 8 5 5 12 4 2 5 4 8 9 1 17 0 9 12 14 13 8 8 5 4 6 4 2 7 6 3 6 5 6 6 5 5 5 5 5 4 6 5 7 7 5 6 7 7 6 7 2
8 3 12 8 -1 11 12 2 7 9 7 -0 4 0 11 1 8 11 14 12 10 2 3 3 5 5 5 5 5 5 5 5 5 5 4 3 3 2 4 4 -1 4 3 3 3 4 5 4 3
6 18 -10 23 11 10 6 8 1 3 19 6 -2 6 16 7 8 -0 2 -1 2 4 7 4 6 5 6 6 5 5 4 5 4 5 7 7 7 5 3 3 2 2 2 4 7 5 8 7 7
7 10 9 5 14 9 11 8 6 8 1 8 12 7 5 18 6 5 1 6 9 10 8 7 5 6 6 5 5 5 6 4 5 7 6 6 5 3 3 3 4 4 6 8 7 10 8 7 10
7 1 12 8 10 10 9 8 -0 8 6 3 6 4 13 16 13 2 4 6 6 7 7 6 5 6 6 5 5 4 4 6 7 6 6 5 3 3 4 6 7 8 8 9 9 11 11 6 14
7 6 11 9 11 9 8 -3 -6 13 6 3 4 6 12 5 -4 -3 -5 6 8 11 10 7 7 6 3 5 4 5 8 6 8 8 5 4 5 8 7 7 9 10 10 10 11 11 12 6 8
9 8 1 8 6 7 4 6 1 6 5 1 3 6 2 13 1 17 4 7 2 2 3 7 7 6 4 4 5 8 7 8 4 5 7 9 9 8 8 9 10 9 9 8 7 8 7 12 9
12 9 2 18 8 -4 7 15 19 8 -3 6 5 9 7 6 5 9 2 1 -1 5 -14 -16 -14 -20 -3 6 10 7 9 5 6 9 9 8 8 9 9 9 8 8 7 7 9 10 13 14 14
5 -3 9 -7 7 -7 8 -4 10 19 7 7 5 7 10 6 3 11 22 10 10 26 42 25 54 20 -13 -5 -0 5 8 10 11 10 9 9 8 9 9 9 9 8 9 12 13 15 12 8 6
7 15 -2 11 9 8 11 -9 1 6 16 7 9 7 13 10 12 4 7 5 3 2 6 7 21 29 1 15 -16 -54 8 10 -1 10 10 9 9 9 8 9 11 11 15 13 11 8 7 7 7
-5 14 15 23 29 16 10 12 -9 10 11 17 17 8 10 9 4 4 1 4 2 3 8 2 10 11 20 25 56 16 -15 1 -1 7 10 9 9 9 9 13 15 14 10 7 7 7 8 8 8
7 6 14 -2 6 10 10 4 10 8 7 10 23 10 13 2 5 4 2 4 5 8 1 7 13 12 15 19 54 25 -8 -3 -9 -3 6 7 9 14 16 13 11 8 6 7 7 8 8 9 10
11 10 10 13 -5 2 6 37 -10 -3 9 9 8 6 6 7 5 1 3 3 4 12 4 10 2 1 3 -1 -14 -5 5 4 -5 3 9 14 13 16 11 8 7 6 6 8 8 8 9 9 7
10 14 9 13 2 6 17 -4 28 6 6 6 7 6 4 -2 6 4 1 3 1 5 12 4 4 7 10 15 4 8 5 32 6 -2 -10 5 19 13 5 4 6 7 9 9 8 9 8 7 7
-1 14 10 16 8 10 5 -8 33 20 3 11 7 4 5 6 4 6 4 5 5 5 13 5 4 8 4 11 5 6 4 5 7 9 15 11 12 10 5 6 7 9 9 8 9 7 7 7 6
10 11 18 12 25 -12 19 -0 -20 24 19 13 14 7 2 5 7 4 6 4 3 4 11 7 3 2 2 3 1 5 8 5 4 12 13 17 10 9 6 7 9 8 8 9 7 8 8 6 4
10 3 -29 3 21 31 -18 28 -8 8 30 21 11 16 12 10 -1 4 9 7 4 6 12 10 8 9 12 11 6 10 8 8 9 16 19 13 7 6 7 8 8 9 9 8 8 8 5 4 5
26 4 -3 -7 -1 7 23 -8 -7 19 0 11 25 12 11 8 3 8 6 4 5 9 12 10 5 4 5 7 8 10 9 8 11 17 11 6 6 7 8 9 8 9 7 8 8 5 4 5 6
4 8 7 -4 23 1 41 7 -2 3 12 7 6 14 16 14 13 8 6 9 12 10 9 10 5 4 9 9 8 6 6 9 16 16 7 6 7 8 9 9 9 7 7 7 5 4 5 5 6
6 18 -1 -2 -22 -5 8 24 24 -2 30 8 12 5 5 16 15 -0 9 8 14 8 9 9 11 12 12 10 9 11 10 14 18 10 6 7 8 8 8 9 8 7 7 5 4 4 4 5 6
4 2 19 -22 44 -1 -3 -4 43 19 2 26 14 14 6 20 -4 20 16 9 18 11 6 7 9 8 8 9 10 11 12 18 13 6 6 7 7 8 7 9 7 7 7 4 4 4 5 6 6
Height
3146 3147 3148 3150 3157 3150 3143 3140 3141 3145 3149 3149 3152 3154 3151 3152 3154 3158 3156 3155 3159 3158 3159 3161 3162 3163 3164 3164 3165 3166 3167 3168 3169 3170 3170 3170 3169 3169 3170 3170 3170 3169 3170 3170 3171 3172 3172 3172 3173
3144 3146 3147 3150 3151 3143 3139 3137 3144 3145 3146 3150 3148 3149 3153 3152 3152 3154 3154 3156 3158 3159 3160 3162 3163 3164 3165 3165 3166 3166 3167 3169 3169 3170 3171 3170 3171 3171 3171 3171 3172 3172 3172 3173 3173 3174 3174 3174 3175
3142 3144 3147 3148 3145 3140 3138 3137 3143 3143 3146 3148 3148 3152 3148 3150 3151 3152 3153 3156 3158 3159 3160 3162 3163 3165 3166 3166 3167 3167 3168 3169 3170 3171 3172 3172 3172 3173 3173 3173 3173 3173 3174 3174 3174 3175 3175 3175 3176
3140 3143 3145 3143 3139 3138 3140 3140 3142 3142 3145 3148 3148 3146 3148 3149 3150 3153 3153 3155 3157 3159 3162 3162 3164 3165 3166 3166 3167 3168 3169 3170 3171 3172 3173 3173 3173 3174 3174 3175 3175 3176 3176 3176 3176 3177 3177 3177 3178
3138 3142 3142 3139 3138 3135 3139 3143 3143 3143 3144 3146 3149 3146 3146 3148 3150 3152 3153 3155 3157 3158 3161 3163 3165 3166 3167 3167 3168 3169 3170 3170 3172 3172 3173 3174 3174 3174 3175 3175 3176 3177 3177 3178 3178 3178 3178 3178 3178
3138 3139 3138 3134 3133 3131 3139 3141 3142 3144 3141 3144 3148 3143 3147 3148 3150 3152 3153 3155 3158 3159 3161 3163 3165 3166 3167 3168 3168 3170 3170 3171 3172 3173 3173 3174 3175 3174 3175 3176 3176 3177 3177 3178 3178 3178 3178 3178 3178
3133 3136 3133 3131 3129 3129 3136 3138 3141 3143 3142 3143 3144 3145 3147 3148 3149 3152 3153 3155 3157 3158 3161 3162 3164 3166 3167 3168 3169 3170 3171 3171 3172 3173 3174 3174 3175 3175 3175 3176 3176 3176 3177 3177 3177 3177 3177 3177 3177
3130 3132 3130 3128 3126 3127 3131 3135 3139 3141 3143 3141 3143 3144 3145 3147 3148 3149 3152 3154 3156 3159 3161 3163 3164 3166 3168 3168 3169 3170 3171 3171 3172 3172 3173 3174 3175 3175 3175 3175 3175 3175 3176 3176 3176 3176 3176 3176 3176
3127 3128 3125 3125 3125 3128 3128 3134 3138 3140 3139 3141 3142 3143 3142 3145 3147 3149 3150 3153 3155 3158 3160 3162 3164 3165 3168 3168 3168 3170 3171 3172 3172 3172 3172 3173 3174 3174 3175 3175 3175 3174 3174 3174 3174 3174 3174 3174 3174
3121 3123 3122 3122 3125 3127 3125 3132 3137 3137 3139 3139 3139 3138 3141 3143 3146 3147 3150 3153 3155 3157 3159 3161 3163 3166 3167 3169 3168 3170 3170 3171 3172 3172 3173 3173 3174 3174 3175 3174 3175 3174 3174 3174 3174 3173 3173 3173 3172
3117 3117 3120 3120 3122 3125 3121 3129 3135 3136 3138 3138 3138 3137 3140 3142 3145 3147 3149 3151 3154 3156 3156 3159 3161 3164 3166 3167 3168 3169 3169 3171 3171 3172 3172 3173 3174 3173 3174 3174 3174 3174 3173 3173 3172 3172 3171 3171 3170
3113 3115 3116 3117 3119 3122 3123 3130 3133 3135 3136 3136 3134 3137 3139 3140 3142 3145 3149 3149 3150 3150 3155 3158 3159 3162 3165 3167 3167 3167 3168 3169 3170 3171 3172 3172 3172 3173 3173 3173 3172 3172 3171 3170 3170 3168 3168 3167 3165
3110 3112 3114 3116 3118 3122 3124 3127 3131 3131 3130 3130 3133 3136 3138 3139 3141 3144 3145 3147 3151 3153 3155 3157 3158 3161 3164 3165 3167 3167 3168 3168 3169 3169 3170 3170 3170 3171 3170 3170 3169 3169 3168 3167 3166 3165 3164 3162 3160
3107 3109 3111 3113 3116 3119 3121 3124 3126 3123 3125 3130 3133 3135 3137 3139 3141 3143 3144 3147 3149 3152 3154 3156 3158 3160 3161 3164 3165 3166 3167 3167 3167 3168 3168 3168 3168 3168 3168 3167 3167 3166 3165 3164 3162 3162 3160 3157 3157
3104 3107 3109 3110 3113 3115 3119 3119 3124 3123 3125 3128 3131 3133 3135 3137 3141 3143 3145 3146 3147 3152 3153 3155 3156 3158 3160 3161 3163 3164 3165 3165 3165 3166 3167 3167 3167 3166 3166 3165 3164 3163 3162 3160 3159 3158 3158 3155 3154
3100 3104 3105 3106 3109 3112 3116 3118 3114 3119 3122 3124 3127 3130 3132 3135 3138 3141 3144 3146 3148 3149 3151 3154 3155 3158 3158 3159 3161 3162 3163 3164 3164 3164 3164 3165 3165 3165 3163 3162 3161 3160 3159 3158 3157 3156 3155 3155 3153
3094 3095 3098 3101 3106 3109 3112 3113 3107 3114 3119 3121 3124 3127 3130 3133 3136 3139 3140 3144 3143 3145 3148 3150 3152 3154 3158 3158 3159 3160 3161 3161 3162 3162 3162 3162 3162 3162 3161 3160 3159 3158 3157 3156 3155 3154 3154 3154 3152
3085 3090 3093 3094 3102 3106 3109 3110 3109 3110 3114 3118 3121 3124 3127 3129 3132 3136 3137 3139 3138 3138 3143 3146 3143 3150 3154 3155 3156 3156 3158 3159 3159 3160 3160 3159 3159 3158 3158 3158 3157 3156 3155 3154 3154 3153 3153 3153 3152
3082 3086 3086 3091 3093 3102 3104 3108 3107 3110 3110 3113 3117 3120 3123 3126 3128 3132 3133 3135 3136 3137 3140 3142 3144 3147 3148 3149 3152 3153 3154 3157 3157 3157 3157 3157 3157 3156 3155 3156 3155 3154 3153 3152 3152 3152 3153 3152 3151
3077 3079 3084 3087 3089 3095 3099 3102 3101 3106 3108 3110 3113 3117 3120 3123 3125 3128 3131 3133 3136 3136 3137 3139 3140 3141 3143 3142 3143 3149 3152 3153 3155 3155 3155 3154 3154 3153 3153 3154 3154 3153 3152 3152 3152 3153 3151 3151 3150
3073 3076 3080 3083 3088 3093 3096 3096 3099 3101 3107 3110 3109 3115 3118 3119 3122 3124 3128 3130 3132 3134 3135 3137 3137 3138 3139 3139 3143 3148 3152 3153 3153 3153 3152 3151 3152 3154 3154 3152 3153 3152 3152 3153 3152 3151 3151 3150 3150
3070 3075 3078 3079 3084 3087 3091 3086 3091 3095 3103 3106 3107 3109 3114 3116 3118 3122 3125 3127 3129 3131 3132 3135 3136 3138 3139 3141 3144 3147 3150 3150 3153 3153 3153 3153 3151 3150 3152 3151 3152 3151 3152 3152 3152 3151 3150 3150 3149
3069 3073 3076 3077 3082 3084 3082 3087 3080 3088 3094 3098 3102 3106 3109 3112 3114 3118 3121 3124 3125 3127 3129 3131 3134 3136 3138 3139 3142 3144 3146 3147 3150 3151 3151 3150 3150 3150 3150 3149 3150 3150 3151 3151 3151 3151 3150 3149 3148
3068 3071 3074 3076 3078 3076 3075 3079 3081 3080 3086 3093 3097 3100 3104 3108 3110 3113 3117 3120 3122 3124 3127 3129 3132 3134 3136 3138 3139 3141 3143 3144 3144 3145 3145 3146 3147 3149 3149 3149 3151 3151 3150 3150 3150 3150 3149 3149 3148
3063 3066 3070 3071 3069 3066 3071 3071 3074 3079 3081 3085 3092 3096 3099 3103 3105 3107 3112 3115 3118 3121 3123 3125 3128 3130 3132 3135 3137 3138 3139 3140 3141 3142 3143 3144 3146 3147 3147 3148 3150 3150 3149 3150 3150 3149 3149 3148 3147
3055 3060 3057 3059 3059 3061 3065 3063 3069 3076 3077 3081 3087 3092 3096 3098 3100 3103 3106 3109 3113 3116 3119 3122 3124 3126 3129 3131 3133 3135 3136 3137 3138 3139 3140 3142 3144 3145 3146 3147 3149 3149 3150 3150 3149 3148 3148 3147 3147
3052 3051 3055 3057 3058 3056 3055 3064 3067 3070 3074 3078 3081 3086 3090 3093 3094 3097 3100 3103 3107 3111 3114 3117 3120 3122 3125 3127 3129 3130 3132 3134 3134 3135 3137 3139 3141 3144 3145 3147 3149 3148 3149 3149 3149 3148 3148 3147 3145
3043 3052 3056 3052 3053 3051 3048 3051 3059 3067 3070 3073 3077 3080 3085 3088 3090 3091 3095 3098 3102 3106 3108 3112 3115 3118 3120 3122 3124 3126 3127 3129 3131 3133 3135 3138 3141 3143 3145 3146 3147 3147 3148 3148 3148 3147 3146 3145 3142
3039 3043 3047 3052 3050 3049 3049 3048 3052 3059 3064 3067 3072 3075 3080 3084 3084 3086 3090 3093 3097 3100 3103 3107 3109 3112 3114 3117 3120 3122 3124 3125 3128 3131 3134 3137 3139 3141 3142 3144 3145 3146 3146 3147 3147 3145 3143 3142 3141
3034 3038 3042 3043 3043 3047 3052 3053 3051 3056 3060 3063 3066 3070 3075 3079 3080 3082 3086 3088 3091 3094 3098 3102 3105 3108 3111 3114 3116 3118 3120 3122 3125 3128 3131 3134 3137 3139 3141 3142 3143 3144 3145 3145 3144 3143 3142 3141 3139